Location: Zagreb
(45.8000°N, 16.0000°E)
Time: 18:36:26
(UTC+02:00)

Vanguard 2 - All Passes

Search period start: 09 August 2020 00:00
Search period end: 19 August 2020 00:00
Orbit: 553 x 2938 km, 32.9° (Epoch: 08 August)

Date Brightness Start Highest point End Pass type
(mag) Time Alt. Az. Time Alt. Az. Time Alt. Az.
09 Aug - 01:55:30 10° WSW 02:04:21 28° SSW 02:10:19 10° SSE visible
09 Aug - 19:40:51 10° SSW 19:53:30 25° SSE 20:03:59 10° ESE daylight
09 Aug - 21:49:10 10° SW 22:03:45 40° SSE 22:13:57 10° ESE visible
10 Aug - 00:00:46 10° WSW 00:13:30 41° S 00:21:39 10° ESE visible
10 Aug - 02:13:40 10° WSW 02:21:43 24° SSW 02:27:22 10° SSE visible
10 Aug - 17:54:58 10° SSE 18:01:14 13° SE 18:07:14 10° ESE daylight
10 Aug - 19:57:04 10° SSW 20:11:06 31° SSE 20:22:26 10° E daylight
10 Aug - 22:06:32 10° WSW 22:21:28 44° S 22:31:45 10° ESE visible
11 Aug - 00:18:38 10° WSW 00:31:07 40° SSW 00:39:08 10° SE visible
11 Aug - 02:32:06 10° WSW 02:39:00 20° SW 02:44:05 10° S visible
11 Aug - 18:08:29 10° S 18:18:37 18° SE 18:28:03 10° ESE daylight
11 Aug - 20:13:43 10° SW 20:28:44 36° SSE 20:40:36 10° E visible
11 Aug - 22:24:05 10° WSW 22:39:12 46° S 22:49:29 10° ESE visible
12 Aug - 00:36:35 10° W 00:48:38 37° SSW 00:56:31 10° SE visible
12 Aug - 02:51:02 10° WSW 02:56:09 15° SW 03:00:15 10° S visible
12 Aug - 18:23:40 10° S 18:36:02 24° SE 18:47:21 10° E daylight
12 Aug - 20:30:42 10° SW 20:46:24 41° SSE 20:58:37 10° E visible
12 Aug - 22:41:46 10° WSW 22:56:54 47° S 23:07:08 10° ESE visible
13 Aug - 00:54:38 10° W 01:06:06 33° SSW 01:13:44 10° SSE visible
13 Aug - 03:11:42 10° WSW 03:13:13 10° SW 03:14:37 10° SW visible
13 Aug - 18:39:39 10° SSW 18:53:29 29° SSE 19:06:02 10° E daylight
13 Aug - 20:47:57 10° SW 21:04:06 45° SSE 21:16:29 10° ESE visible
13 Aug - 22:59:33 10° WSW 23:14:34 46° S 23:24:43 10° ESE visible
14 Aug - 01:12:51 10° W 01:23:26 28° SSW 01:30:45 10° SSE visible
14 Aug - 16:53:00 10° SSE 17:01:15 15° SE 17:09:31 10° ESE daylight
14 Aug - 18:56:06 10° SSW 19:10:59 35° SSE 19:24:21 10° E daylight
14 Aug - 21:05:24 10° WSW 21:21:49 48° S 21:34:17 10° ESE visible
14 Aug - 23:17:27 10° W 23:32:11 44° SSW 23:42:11 10° SE visible
15 Aug - 01:31:17 10° W 01:40:39 23° SW 01:47:27 10° S visible
15 Aug - 17:07:32 10° S 17:18:28 21° SE 17:29:32 10° E daylight
15 Aug - 19:12:56 10° SW 19:28:33 40° SSE 19:42:28 10° E daylight
15 Aug - 21:23:00 10° WSW 21:39:33 50° S 21:52:00 10° ESE visible
15 Aug - 23:35:25 10° W 23:49:43 40° SSW 23:59:31 10° SE visible
16 Aug - 01:50:07 10° W 01:57:46 18° SW 02:03:42 10° S visible
16 Aug - 17:23:10 10° SSW 17:35:45 26° SE 17:48:34 10° E daylight
16 Aug - 19:30:03 10° SW 19:46:11 45° SSE 20:00:26 10° E daylight
16 Aug - 21:40:43 10° WSW 21:57:16 50° S 22:09:39 10° ESE visible
16 Aug - 23:53:30 10° W 00:07:10 36° SSW 00:16:43 10° SE visible
17 Aug - 02:09:51 10° WSW 02:14:47 13° SW 02:18:59 10° SSW visible
17 Aug - 15:40:08 10° SE 15:44:07 11° SE 15:48:14 10° ESE daylight
17 Aug - 17:39:24 10° SSW 17:53:06 32° SSE 18:07:07 10° E daylight
17 Aug - 19:47:22 10° SW 20:03:52 48° SSE 20:18:18 10° ESE daylight
17 Aug - 21:58:31 10° WSW 22:14:57 49° S 22:27:12 10° ESE visible
18 Aug - 00:11:44 10° W 00:24:29 31° SSW 00:33:40 10° SSE visible
18 Aug - 15:52:45 10° SSE 16:01:09 16° SE 16:10:14 10° ESE daylight
18 Aug - 17:56:03 10° SSW 18:10:32 37° SSE 18:25:23 10° E daylight
18 Aug - 20:04:51 10° WSW 20:21:35 51° S 20:36:06 10° ESE visible
18 Aug - 22:16:26 10° W 22:32:34 46° SSW 22:44:40 10° SE visible
